SPACEBEE-18 (46304 NORAD) Tracking and Keplerian Element Data

This shows tracking and keplerian element data for the satellite.

Feedback or suggestion? Click here.




ElementValue
Catalog46304
NameSPACEBEE-18
Epoch Orbit1326
Epoch Day335.63206826
Epoch Year2020
RAAN47.1776
Inclination97.5116
Eccentricity0.0001144
Argument of Perigee68.0628
Mean Anonmoly292.0724
Mean Motion15.11020733
Decay Rate5.724E-05
L11 46304U 20061AJ 20335.63206826 .00005724 00000-0 34627-3 0 9995
L22 46304 97.5116 47.1776 0001144 68.0628 292.0724 15.11020733 13261

Live tracking and technical data element details for SPACEBEE-18 (NORAD 46304). SPACEBEE-18 can be tracked NOW for your location showing map with azimuth and elevation plus other details from your city location.

Track the satellite on the map from your city or location and see movement details for azimuth, elevation, latitude, longitude, range, height, and movement on the map or in text.







IsCatalogInMostPopularTable: catalog: 46304, numindb: 22
Update: records affected: 1



GetName: 46304 SPACEBEE-18

Hit Count: updated at: Tue, 01 Dec 2020 21:00:10 GMT